Regional Weather Roundup
Issued by NWS Cleveland, OH

Home | Current Version | Previous Version | Graphics & Text | Print | Product List | Glossary On
Versions: 1 2 3 4 5 6 7 8 9 10 11 12 13 14 15 16 17 18 19 20 21 22 23 24 25 26 27 28 29 30 31 32 33 34 35 36 37 38 39 40 41 42 43 44 45 46 47 48 49 50
000
ASUS41 KCLE 211402
RWRCLE
OHIO REGIONAL WEATHER ROUNDUP
NATIONAL WEATHER SERVICE CLEVELAND, OH
900 AM EST SUN DEC 21 2014

NOTE: "FAIR" INDICATES FEW OR NO CLOUDS BELOW 12,000 FEET WITH NO
SIGNIFICANT WEATHER AND/OR OBSTRUCTIONS TO VISIBILITY.

OHZ001>008-015>018-024>027-034-035-043-044-211500-
   NORTHWEST OHIO

CITY           SKY/WX    TMP DP  RH WIND       PRES   REMARKS
DEFIANCE       CLOUDY    29  27  92 CALM      30.30S FOG
FINDLAY        CLOUDY    25  22  88 S3        30.30S FOG
TOLEDO EXPRESS CLOUDY    24  22  91 CALM      30.30F FOG
TOLEDO EXEC    PTCLDY    24  21  88 CALM      30.32S FOG
LIMA           CLOUDY    29  25  85 S5        30.28F FOG     WCI  24
$$

OHZ009>014-019>023-028>033-038-089-211500-
   NORTHEAST OHIO

CITY           SKY/WX    TMP DP  RH WIND       PRES   REMARKS
CLE-HOPKINS    CLOUDY    30  21  69 CALM      30.34S
CLE-LAKEFRONT  CLOUDY    31  22  69 SW6       30.32S WCI  25
CUY CO. ARPT   CLOUDY    32  21  64 CALM      30.32S
LORAIN-ELYRIA  CLOUDY    29  24  82 CALM      30.32S
ASHTABULA      CLOUDY    30  25  81 S3        30.32R
AKRON-CANTON   CLOUDY    29  23  78 CALM      30.30S FOG
WOOSTER        CLOUDY    29  21  72 CALM      30.31R
MANSFIELD      PTCLDY    25  22  88 CALM      30.29S
YOUNGSTOWN     CLOUDY    28  23  81 S3        30.30S
$$

OHZ042-051>053-060>062-070>072-077>081-211500-
  SOUTHWEST OHIO

CITY           SKY/WX    TMP DP  RH WIND       PRES   REMARKS
CINC-COVINGTON MOCLDY    27  21  78 SE3       30.30R HAZE
CINC-LUNKEN    PTCLDY    25  24  96 CALM      30.34S
HAMILTON       CLEAR     21  19  92 CALM      30.33S FOG
DAYTON         PTCLDY    26  22  84 SE5       30.30S FOG     WCI  20
WRIGHT-PAT AFB CLEAR     22  19  89 CALM      30.31S
DAYTON GENERAL CLEAR     25  22  88 E3        30.29S FOG
WILMINGTON     CLEAR     26  22  84 E5        30.30S FOG     WCI  20
$$

OHZ036-037-039>041-045>050-054>059-063>069-073>076-082>088-211500-
  CENTRAL AND SOUTHEAST OHIO

CITY           SKY/WX    TMP DP  RH WIND       PRES   REMARKS
COLUMBUS       MOCLDY    28  21  75 CALM      30.32S
OSU AIRPORT    CLEAR     26  23  88 CALM      30.31S FOG
BOLTON FIELD   PTCLDY    25  21  86 CALM      30.32S
RICKENBACK AFB NOT AVBL
NEWARK         CLOUDY    31  22  69 CALM      30.32R
MARION         CLOUDY    25  22  88 CALM      30.31R FOG
LANCASTER      CLOUDY    37  26  64 E3        30.33R HAZE
ZANESVILLE     CLOUDY    29  25  85 CALM      30.32S FOG
NEW PHILLY     CLOUDY    30  24  78 CALM      30.33R
$$


USA.gov is the U.S. government's official web portal to all federal, state and local government web resources and services.